Tracking 29892 objects as of 21-Nov-2024
HD Live streaming from Space Station
objects crossing your sky now

USA 223

Track USA 223 now!
USA 223 is classified as:


NORAD ID: 37232
Int'l Code: 2010-063A
Perigee: 35,650.0 km
Apogee: 35,938.5 km
Inclination: 5.1 °
Period: 1,436.1 minutes
Semi major axis: 42165 km
RCS: Unknown
Launch date: November 21, 2010
Source: United States (US)
Launch site: AIR FORCE EASTERN TEST RANGE (AFETR)

This spy satellite, also known as NROL-32 is apparently the largest satellite in the world.
Your satellite tracking list
Your tracking list is empty




NASA's NSSDC Master Catalog

Two Line Element Set (TLE):
1 37232U 10063A   21250.10315226 0.00000000  00000-0  00000-0 0    00
2 37232   5.1064 118.9826 0034205 182.3602 177.6368  1.00270000    04
Source of the keplerian elements: McCants